Preview of NWS' New Version of Forecast
This preview is not operational and should not be used for support decisions.

Regional Weather Roundup (RWR)

Issued by Gray - Portland, ME (GYX)

                            
000
ASUS41 KGYX 230506
RWRGYX
WEATHER ROUNDUP FOR MAINE AND NEW HAMPSHIRE
NATIONAL WEATHER SERVICE GRAY ME
100 AM EDT TUE JUL 23 2019

MEZ002-005-006-010-012-015-018-020-021-024-026-027-029-230600-
MAINE
  
CITY           SKY/WX    TMP DP  RH WIND       PRES   REMARKS
PORTLAND       LGT RAIN  63  61  93 N8        29.83F                  
SANFORD        RAIN      63  63 100 N10       29.82F                  
BAR HARBOR     LGT RAIN  61  59  93 CALM      29.88S                  
WISCASSET      LGT RAIN  62  60  93 CALM      29.85F                  
ROCKLAND       LGT RAIN  61  60  97 NE5       29.84F                  
FRYEBURG       CLOUDY    63  61  93 NW3       29.86F                  
LEWISTONAUBURN LGT RAIN  62  61  96 N5        29.86F                  
AUGUSTA        LGT RAIN  62  61  96 NE6       29.87F                  
WATERVILLE     LGT RAIN  60  59  96 CALM      29.85F                  
BANGOR         LGT RAIN  60  58  92 CALM      29.87F                  
GREENVILLE       N/A     58  53  84 CALM      29.87F                  
MILLINOCKET    FAIR      61  56  83 CALM      29.88F                  
HOULTON        FAIR      55  52  89 CALM      29.86S                  
PRESQUE ISLE   FAIR      56  53  90 CALM      29.87S                  
FRENCHVILLE    FAIR      57  47  69 S3        29.85S                  
CARIBOU        FAIR      56  50  80 W3        29.85S                  
$$

NHZ002-005-008-009-011-012-014-230600-
NEW HAMPSHIRE
  
CITY           SKY/WX    TMP DP  RH WIND       PRES   REMARKS
PORTSMOUTH     RAIN      64  62  96 N6        29.80S FOG              
ROCHESTER      RAIN      63  61  93 N3        29.82S FOG              
NASHUA         LGT RAIN  64  64 100 NW6       29.83S                  
MANCHESTER     HVY RAIN  65  63  93 N7        29.81S FOG              
CONCORD        LGT RAIN  63  62  97 N3        29.84R FOG              
LACONIA        LGT RAIN  64  62  93 NE6       29.85S                  
PLYMOUTH       DRIZZLE   63  62  96 CALM      29.84F                  
BERLIN         CLOUDY    60  57  89 CALM      29.88F                  
WHITEFIELD     CLOUDY    60  59  96 NW3       29.86F                  
JAFFREY        LGT RAIN  62  59  90 VRB3      29.85R                  
KEENE          LGT RAIN  63  62  97 N5        29.84S                  
LEBANON        CLOUDY    64  60  87 N3        29.85S                  
MT WASHINGTON  FOG       46  46 100 NW7         N/A  VSB 1/8          
$$

VTZ005-007-008-230600-
VERMONT
  
CITY           SKY/WX    TMP DP  RH WIND       PRES   REMARKS
ST JOHNSBURY     N/A     61  61 100 MISG      29.85F                  
MONTPELIER     CLOUDY    61  61 100 CALM      29.90F                  
BURLINGTON     MOCLDY    66  61  84 CALM      29.85F                  
$$

MAZ007-012-024-CTZ003-RIZ002-NYZ038-NYZ072-230600-
SOUTHERN NEW ENGLAND AND NY
  
CITY           SKY/WX    TMP DP  RH WIND       PRES   REMARKS
BOSTON         LGT RAIN  67  63  87 N10       29.79R                  
WORCESTER      LGT RAIN  62  61  96 NE9       29.82R FOG              
NANTUCKET      FAIR      71  69  93 SW12      29.74F                  
PROVIDENCE     CLOUDY    71  69  93 N8        29.76R                  
HARTFORD       LGT RAIN  64  63  96 N8        29.78F FOG              
ALBANY         LGT RAIN  66  62  87 N6        29.83S                  
NEW YORK CITY  LGT RAIN  76  72  87 SW3       29.74F                  
$$

ANZ081-ANZ082-ANZ150-NHZ014-MEZ023>029-230600-
COASTAL MARINE OBSERVATIONS
  
STATION/POSITION TIME  TEMP    WIND        PRES    WAVE
                       AIR SEA DIR/SP/G            HT/PER
                 (UTC) (F)     (DEG/KT/KT) (MB)    (FT/S)
ISLE OF SHOALS   0400   64      30/ 16/ 18 1008.7F
JEFFREYS LEDGE   0438      68                N/A     4/ 4
CASHES LEDGE BUO 0450   60 60   30/ 16/ 19 1009.2F   2/ 8
GEORGES BANK BUO 0450   68 60  210/ 10/ 12 1010.5F   2/ 5
$$

.............KEY..............
   WCI - WIND CHILL
   TC  - TEMPERATURE IN CELSIUS
   VSB - VISIBILITY IN MILES
   HX  - HEAT INDEX
   FAIR- INDICATES FEW OR NO CLOUDS BELOW 12,000 FT, WITH NO 
         SIGNIFICANT WEATHER AND/OR OBSTRUCTIONS TO VISIBILITY.